Location: Stavanger
(58.9670°N, 5.7500°E)
Time: 15:42:55
(UTC+02:00)

ISS - Visible Passes

Search period start: 09 May 2021 00:00
Search period end: 19 May 2021 00:00
Orbit: 418 x 421 km, 51.6° (Epoch: 09 May)

Date Brightness Start Highest point End Pass type
(mag) Time Alt. Az. Time Alt. Az. Time Alt. Az.
09 May -1.4 02:03:26 12° SE 02:03:26 12° SE 02:03:57 10° SE visible
09 May -2.4 03:36:22 14° SW 03:38:20 23° S 03:41:03 10° ESE visible
10 May -2.4 02:50:22 20° S 02:51:04 21° SSE 02:53:41 10° ESE visible
11 May -2.1 02:04:20 18° SSE 02:04:20 18° SSE 02:06:15 10° ESE visible
11 May -2.5 03:37:16 11° WSW 03:39:56 24° S 03:42:42 10° SE visible
12 May -1.5 01:18:16 12° SE 01:18:16 12° SE 01:18:43 10° ESE visible
12 May -2.6 02:51:11 18° SW 02:52:39 24° S 02:55:26 10° ESE visible
13 May -2.6 02:05:00 22° S 02:05:22 23° S 02:08:05 10° ESE visible
13 May -2.4 03:38:54 10° WSW 03:41:31 21° SSW 03:44:07 10° SE visible
14 May -2.3 01:18:35 20° SSE 01:18:35 20° SSE 01:20:42 10° ESE visible
14 May -2.5 02:51:31 10° WSW 02:54:14 22° S 02:56:57 10° SE visible
15 May -2.3 00:28:23 10° SSW 00:30:49 19° SSE 00:33:16 10° ESE visible
15 May -2.6 02:04:11 10° WSW 02:06:57 24° S 02:09:43 10° SE visible
15 May -2.1 03:40:55 10° WSW 03:43:01 15° SSW 03:45:06 10° SSE visible
15 May -2.1 23:41:26 10° SSW 23:43:34 16° SSE 23:45:43 10° ESE visible
16 May -2.6 01:16:52 10° SW 01:19:39 24° S 01:22:25 10° ESE visible
16 May -2.3 02:53:22 10° WSW 02:55:46 18° SSW 02:58:10 10° SSE visible
17 May -2.6 00:29:37 10° SW 00:32:21 23° S 00:35:05 10° ESE visible
17 May -2.4 02:05:53 10° WSW 02:08:30 21° SSW 02:11:06 10° SE visible
17 May -2.4 23:42:27 10° SW 23:45:03 21° SSE 23:47:41 10° ESE visible
18 May -2.5 01:18:29 10° WSW 01:21:12 22° S 01:22:50 16° SSE visible
18 May -1.5 02:55:40 10° SW 02:55:43 10° SW 02:55:43 10° SW visible
